sat.trackr.live / text

‹ back to catalog

STARLINK-11247 [DTC]

NORAD 60720 · 2024-152A

PAYLOAD ACTIVE UNKNOWN

§ Identity

Operator
Country
US
Launch date
2024-08-28
Launch site
AFETR
Launch vehicle
Mass (kg)
RCS (m²)

Purposes: comms

External: N2YO · Heavens-Above · Gunter

§ Orbital elements

Epoch: 2026-09-21T22:29:10.288032Z

Period
91.74 min
Inclination
53.1583°
Eccentricity
0.0000888
Mean motion
15.69712700 rev/d
Perigee alt
359.1 km
Apogee alt
360.3 km
Semi-major
6,737.9 km
B*
9.1170e-6
RAAN
229.1427°
Arg perigee
78.0626°
Mean anomaly
282.0491°
Rev number
11,965

§ Raw data

STARLINK-11247 [DTC]1 60720U 24152A   26264.93692463  .00000516  00000+0  91170-5 0  99952 60720  53.1583 229.1427 0000888  78.0626 282.0491 15.69712700119658

JSON: /api/v1/satellites/60720 · /tle

For live sub-satellite position, see the globe view (requires WebGL).

§ Visibility from observer

Set your observer location to see the next 7 days of passes ≥ 10°. The values pass through the URL so the page stays shareable.

No JS? Fill the form by hand. The geolocation button needs JavaScript.